{"data":{"norad_id":61613,"intl_designator":"2024-188V","name":"ONEWEB-0708","alt_names":[],"object_type":"PAYLOAD","status":"ACTIVE","operator":null,"country":"UK","launch_date":"2024-10-20","launch_site_code":"AFWTR","launch_vehicle":null,"mission":null,"orbit_class":"UNKNOWN","rcs_meters":null,"size_class":null,"mass_kg":null,"dimensions":null,"purposes":["comms"],"wikipedia_slug":null,"has_3d_model":false,"image_url":null,"decayed_at":null,"tle_current":{"epoch":"2026-09-19T14:45:53.055360Z","epoch_age_seconds":94756,"freshness":"FRESH","line1":"1 61613U 24188V   26262.61519740  .00000646  00000+0  18133-2 0  9994","line2":"2 61613  87.8901  17.4770 0001831 119.3358 240.7952 13.10373941 95668","mean_motion":13.10373941,"eccentricity":0.0001831,"inclination_deg":87.8901,"raan_deg":17.477,"arg_perigee_deg":119.3358,"mean_anomaly_deg":240.7952,"bstar":0.0018133,"rev_number":9566,"period_min":109.89229524063,"perigee_km":1220.3212723241,"apogee_km":1223.1043373227,"semimajor_km":7599.8498048234,"source":"CELESTRAK","updated_at":"2026-09-20T09:00:44.802410Z"}}}